Weather History for Aniak, AK

Change the Weather History Date:

Saturday, July 13, 2013

  Actual Average Record
Temperature  
Mean Temperature 68 °F -  
Max Temperature 84 °F 63 °F 84 °F (2013)
Min Temperature 53 °F 46 °F 35 °F (1997)
Cooling Degree Days 4    
Growing Degree Days 18 (Base 50)    
Moisture  
Dew Point 50 °F    
Average Humidity 53    
Maximum Humidity 88    
Minimum Humidity 26    
Precipitation  
Precipitation 0.00 in - - ()
Sea Level Pressure  
Sea Level Pressure 29.96 in    
Wind  
Wind Speed 2 mph (ESE)    
Max Wind Speed 11 mph    
Max Gust Speed -    
Visibility 10 miles    
Events      
Averages and records for this station are not official NWS values.
T = Trace of Precipitation, MM = Missing Value Source: NWS Daily Summary

Daily Weather History Graph

Daily Weather History Graph

Search for Another Location

Airport:

Trip Planner

Search our weather history database for the weather conditions in past years. The results will help you decide how hot, cold, wet, or windy it might be!

Date:

Astronomy

Jul. 13, 2013 Rise Set
Actual Time 5:22 AM AKDT 12:03 AM AKDT
Civil Twilight 3:36 AM AKDT 1:46 AM AKDT
Nautical Twilight Sun does not rise Sun does not rise
Astronomical Twilight Sun does not rise Sun does not rise
Moon 12:54 PM AKDT (7/13) 12:27 AM AKDT (7/13)
Length of Visible Light 22h 10m
Length of Day
18h 41m
Waxing Crescent, 27% of the Moon is Illuminated
Jul 13
Waxing Crescent
Jul 15
First Quarter
Jul 22
Full
Jul 29
Last Quarter
Aug 6
New

Hourly Weather History & Observations

Time (AKDT) Temp. Dew Point Humidity Pressure Visibility Wind Dir Wind Speed Gust Speed Precip Events Conditions
12:16 AM 68.0 °F 48.2 °F 49% 29.94 in 10.0 mi Calm Calm - N/A   Clear
12:36 AM 66.2 °F 48.2 °F 52% 29.94 in 10.0 mi Calm Calm - N/A   Partly Cloudy
12:56 AM 66.2 °F 48.2 °F 52% 29.95 in 10.0 mi Calm Calm - N/A   Mostly Cloudy
1:16 AM 64.4 °F 48.2 °F 56% 29.95 in 10.0 mi Calm Calm - N/A   Mostly Cloudy
1:36 AM 62.6 °F 48.2 °F 59% 29.95 in 10.0 mi Calm Calm - N/A   Overcast
1:56 AM 64.4 °F 46.4 °F 52% 29.95 in 10.0 mi Calm Calm - N/A   Mostly Cloudy
2:16 AM 60.8 °F 48.2 °F 63% 29.95 in 10.0 mi Calm Calm - N/A   Mostly Cloudy
2:36 AM 60.8 °F 46.4 °F 59% 29.95 in 10.0 mi SSE 4.6 mph - N/A   Overcast
2:56 AM 60.8 °F 48.2 °F 63% 29.96 in 10.0 mi Calm Calm - N/A   Overcast
3:16 AM 57.2 °F 48.2 °F 72% 29.96 in 10.0 mi Calm Calm - N/A   Mostly Cloudy
3:36 AM 57.2 °F 48.2 °F 72% 29.96 in 10.0 mi Calm Calm - N/A   Overcast
3:56 AM 55.4 °F 50.0 °F 82% 29.96 in 10.0 mi Calm Calm - N/A   Overcast
4:16 AM 55.4 °F 50.0 °F 82% 29.96 in 10.0 mi Calm Calm - N/A   Overcast
4:36 AM 55.4 °F 51.8 °F 88% 29.96 in 10.0 mi Calm Calm - N/A   Mostly Cloudy
4:56 AM 53.6 °F 50.0 °F 88% 29.96 in 10.0 mi Calm Calm - N/A   Scattered Clouds
5:16 AM 55.4 °F 50.0 °F 82% 29.96 in 10.0 mi Calm Calm - N/A   Mostly Cloudy
5:36 AM 53.6 °F 48.2 °F 82% 29.96 in 10.0 mi Calm Calm - N/A   Partly Cloudy
5:56 AM 53.6 °F 48.2 °F 82% 29.96 in 10.0 mi ESE 3.5 mph - N/A   Clear
6:16 AM 53.6 °F 46.4 °F 77% 29.97 in 10.0 mi East 5.8 mph - N/A   Clear
6:36 AM 55.4 °F 48.2 °F 77% 29.97 in 10.0 mi East 6.9 mph - N/A   Clear
6:56 AM 57.2 °F 48.2 °F 72% 29.97 in 10.0 mi East 3.5 mph - N/A   Clear
7:16 AM 57.2 °F 48.2 °F 72% 29.97 in 10.0 mi East 6.9 mph - N/A   Clear
7:36 AM 57.2 °F 48.2 °F 72% 29.97 in 10.0 mi East 5.8 mph - N/A   Clear
7:56 AM 60.8 °F 48.2 °F 63% 29.97 in 10.0 mi East 5.8 mph - N/A   Clear
8:16 AM 60.8 °F 48.2 °F 63% 29.97 in 7.0 mi East 4.6 mph - N/A   Clear
8:36 AM 60.8 °F 48.2 °F 63% 29.97 in 7.0 mi East 4.6 mph - N/A   Clear
8:56 AM 62.6 °F 50.0 °F 63% 29.97 in 10.0 mi ENE 4.6 mph - N/A   Clear
9:16 AM 62.6 °F 51.8 °F 68% 29.98 in 10.0 mi East 3.5 mph - N/A   Clear
9:36 AM 64.4 °F 51.8 °F 64% 29.98 in 4.0 mi East 4.6 mph - N/A   Clear
9:56 AM 64.4 °F 51.8 °F 64% 29.98 in 0.8 mi East 3.5 mph - N/A   Unknown
10:16 AM 66.2 °F 53.6 °F 64% 29.98 in 0.8 mi Calm Calm - N/A   Unknown
10:36 AM 68.0 °F 53.6 °F 60% 29.97 in 10.0 mi Calm Calm - N/A   Clear
10:56 AM 69.8 °F 53.6 °F 56% 29.97 in 10.0 mi Calm Calm - N/A   Clear
11:16 AM 71.6 °F 53.6 °F 53% 29.97 in 10.0 mi ENE 3.5 mph - N/A   Clear
11:36 AM 71.6 °F 53.6 °F 53% 29.97 in 10.0 mi East 3.5 mph - N/A   Clear
11:56 AM 73.4 °F 53.6 °F 50% 29.96 in 10.0 mi ENE 3.5 mph - N/A   Clear
12:16 PM 73.4 °F 53.6 °F 50% 29.96 in 10.0 mi NE 4.6 mph - N/A   Clear
12:36 PM 75.2 °F 53.6 °F 47% 29.96 in 10.0 mi NE 3.5 mph - N/A   Clear
12:56 PM 75.2 °F 53.6 °F 47% 29.96 in 10.0 mi Calm Calm - N/A   Clear
1:16 PM 77.0 °F 53.6 °F 44% 29.96 in 10.0 mi ENE 3.5 mph - N/A   Clear
1:36 PM 78.8 °F 53.6 °F 42% 29.96 in 10.0 mi ENE 4.6 mph - N/A   Clear
1:56 PM 78.8 °F 51.8 °F 39% 29.96 in 10.0 mi East 4.6 mph - N/A   Clear
2:16 PM 78.8 °F 50.0 °F 36% 29.96 in 10.0 mi NNE 4.6 mph - N/A   Clear
2:36 PM 78.8 °F 51.8 °F 39% 29.96 in 10.0 mi NNW 4.6 mph - N/A   Scattered Clouds
2:56 PM 78.8 °F 51.8 °F 39% 29.95 in 10.0 mi Calm Calm - N/A   Mostly Cloudy
3:16 PM 78.8 °F 55.4 °F 44% 29.95 in 10.0 mi NNW 4.6 mph - N/A   Mostly Cloudy
3:36 PM 78.8 °F 53.6 °F 42% 29.95 in 10.0 mi Calm Calm - N/A   Scattered Clouds
3:56 PM 80.6 °F 51.8 °F 37% 29.95 in 10.0 mi North 4.6 mph - N/A   Mostly Cloudy
4:16 PM 80.6 °F 51.8 °F 37% 29.94 in 10.0 mi South 3.5 mph - N/A   Scattered Clouds
4:36 PM 80.6 °F 48.2 °F 32% 29.94 in 10.0 mi ESE 3.5 mph - N/A   Mostly Cloudy
4:56 PM 82.4 °F 50.0 °F 32% 29.94 in 10.0 mi South 5.8 mph - N/A   Mostly Cloudy
5:16 PM 82.4 °F 48.2 °F 30% 29.94 in 10.0 mi SSE 3.5 mph - N/A   Mostly Cloudy
5:36 PM 82.4 °F 50.0 °F 32% 29.93 in 10.0 mi South 4.6 mph - N/A   Scattered Clouds
5:56 PM 82.4 °F 48.2 °F 30% 29.93 in 10.0 mi South 4.6 mph - N/A   Mostly Cloudy
6:16 PM 82.4 °F 48.2 °F 30% 29.93 in 10.0 mi SE 4.6 mph - N/A   Scattered Clouds
6:36 PM 82.4 °F 48.2 °F 30% 29.93 in 10.0 mi SSE 6.9 mph - N/A   Partly Cloudy
6:56 PM 82.4 °F 48.2 °F 30% 29.93 in 10.0 mi SW 4.6 mph - N/A   Clear
7:16 PM 82.4 °F 48.2 °F 30% 29.93 in 10.0 mi South 3.5 mph - N/A   Partly Cloudy
7:36 PM 82.4 °F 48.2 °F 30% 29.92 in 10.0 mi Calm Calm - N/A   Partly Cloudy
7:56 PM 84.2 °F 50.0 °F 30% 29.92 in 10.0 mi West 8.1 mph - N/A   Mostly Cloudy
8:16 PM 82.4 °F 48.2 °F 30% 29.92 in 10.0 mi South 3.5 mph - N/A   Overcast
8:36 PM 82.4 °F 46.4 °F 28% 29.92 in 10.0 mi SSE 4.6 mph - N/A   Scattered Clouds
8:56 PM 80.6 °F 48.2 °F 32% 29.93 in 10.0 mi South 3.5 mph - N/A   Clear
9:16 PM 78.8 °F 53.6 °F 42% 29.93 in 10.0 mi West 8.1 mph - N/A   Partly Cloudy
9:36 PM 77.0 °F 53.6 °F 44% 29.94 in 10.0 mi West 5.8 mph - N/A   Partly Cloudy
9:56 PM 75.2 °F 55.4 °F 50% 29.95 in 10.0 mi West 5.8 mph - N/A   Partly Cloudy
10:16 PM 73.4 °F 53.6 °F 50% 29.96 in 10.0 mi West 5.8 mph - N/A   Clear
10:36 PM 73.4 °F 53.6 °F 50% 29.97 in 10.0 mi West 6.9 mph - N/A   Clear
10:56 PM 71.6 °F 51.8 °F 50% 29.97 in 10.0 mi West 4.6 mph - N/A   Clear
11:16 PM 71.6 °F 51.8 °F 50% 29.98 in 10.0 mi WSW 3.5 mph - N/A   Clear
11:36 PM 69.8 °F 51.8 °F 53% 29.98 in 10.0 mi Calm Calm - N/A   Clear
11:56 PM 66.2 °F 53.6 °F 64% 30.00 in 10.0 mi Calm Calm - N/A   Clear